Regional Weather Roundup
Issued by NWS

Home | Current Version | Previous Version | Text Only | Print | Product List | Glossary On
Versions: 1 2 3 4 5 6 7 8 9 10 11 12 13 14 15 16 17 18 19 20 21 22 23 24 25 26 27 28 29 30 31 32 33 34 35 36 37 38 39 40 41 42 43 44 45 46 47 48 49 50
000
ASUS45 KPSR 250710
RWRAZ

ARIZONA HOURLY REGIONAL WEATHER ROUNDUP
NATIONAL WEATHER SERVICE PHOENIX AZ
1200 AM MST MON MAY 25 2015

NOTE: FAIR INDICATES FEW OR NO CLOUDS BELOW 12,000 FEET WITH NO
SIGNIFICANT WEATHER AND/OR OBSTRUCTIONS TO VISIBILITY.

AZZ001>003-036-250800-
NORTHWEST ARIZONA

CITY           SKY/WX    TMP DP  RH WIND       PRES   REMARKS
BULLHEAD CITY  MOCLDY    81  39  22 S13       29.80R
KINGMAN        MOCLDY    58  50  75 VRB3      29.94S
$$

AZZ004>008-015-016-018-250800-
NORTH CENTRAL ARIZONA

CITY           SKY/WX    TMP DP  RH WIND       PRES   REMARKS
GRAND CANYON   CLOUDY    46  43  89 CALM      30.06S
WILLIAMS       CLOUDY    48  43  81 CALM      30.13F
PRESCOTT       PTCLDY    55  33  43 SW9G16    30.01F
FLAGSTAFF      MOCLDY    47  38  71 W6        30.08S
PAYSON         CLEAR     52  39  62 NW3       30.03F
PAGE           CLOUDY    59  48  67 NW3       29.93S
$$

AZZ009>014-017-250800-
NORTHEAST ARIZONA

CITY           SKY/WX    TMP DP  RH WIND       PRES   REMARKS
WINSLOW        CLOUDY    56  42  59 SW10      29.99F
SAINT JOHNS    PTCLDY    48  34  58 CALM      30.02F
WINDOW ROCK    CLEAR     46  38  73 SW5       30.04F
SHOW LOW       CLEAR     41  32  70 S7        30.06F
$$

AZZ023-250800-
GREATER PHOENIX AREA

CITY           SKY/WX    TMP DP  RH WIND       PRES   REMARKS
PHOENIX        CLEAR     78  40  25 NW5       29.83S
BUCKEYE        CLEAR     68  41  37 CALM      29.85S
LUKE AFB       CLEAR     71  45  39 NW3       29.83S
DEER VALLEY    CLEAR     67  38  34 CALM      29.85S
SCOTTSDALE     CLEAR     72  39  30 CALM      29.87S
MESA-GATEWAY   PTCLDY    66  43  42 SE5       29.87F
$$

AZZ027-028-250800-
SOUTHWEST MARICOPA COUNTY AND PINAL COUNTY

CITY           SKY/WX    TMP DP  RH WIND       PRES   REMARKS
CASA GRANDE    CLEAR     66  41  39 SW3       29.86S
GILA BEND      FAIR      71  50  46 SW7       29.84S
$$

AZZ503-504-507>509-250800-
SOUTHEAST ARIZONA

CITY           SKY/WX    TMP DP  RH WIND       PRES   REMARKS
TUCSON         CLEAR     67  34  29 W8        29.95R
DAVIS-MONTHAN  CLEAR     64  33  31 W7        29.93R
NOGALES        CLEAR     56  34  43 E5        29.99S
SIERRA VISTA   CLEAR     56  36  46 SW12      30.01S
DOUGLAS        CLEAR     53  28  38 E6        29.99S
SAFFORD        CLEAR     60  29  30 N10       29.91F
$$

AZZ020-021-025-026-031-250800-
SOUTHWEST ARIZONA

CITY           SKY/WX    TMP DP  RH WIND       PRES   REMARKS
YUMA           CLEAR     72  55  55 SE8       29.83S
$$

CAZ031-033-041-043-047-048-061-250800-
SOUTHERN CALIFORNIA

CITY           SKY/WX    TMP DP  RH WIND       PRES   REMARKS
DOWNTOWN L.A.  CLEAR     59  52  77 CALM      29.97S
L.A. AIRPORT   PTCLDY    59  54  83 W7        29.97F
SAN DIEGO      MOCLDY    63  54  72 N3        29.98F
BURBANK        CLEAR     60  50  69 SE3       29.96S
ONTARIO        PTCLDY    57  51  80 W9        29.96F
RIVERSIDE      CLEAR     58  52  80 CALM      29.97S
PALM SPRINGS   CLEAR     72  49  44 VRB5      29.84S
EL CENTRO NAS  CLEAR     70  48  45 W8        29.82S
IMPERIAL       CLEAR     69  49  48 W7        29.80F
BLYTHE         CLEAR     74  48  39 S10       29.80F
NEEDLES        CLEAR     81  36  19 SW14      29.79S
$$

NVZ020-UTZ003-250800-
SOUTHERN NEVADA-UTAH

CITY           SKY/WX    TMP DP  RH WIND       PRES   REMARKS
LAS VEGAS      LGT RAIN  66  54  65 SE7G18    29.88F
SALT LAKE CITY MOCLDY    53  48  83 S10       29.92F
$$

NMZ009-TXZ055-250800-
NEW MEXICO-WEST TEXAS

CITY           SKY/WX    TMP DP  RH WIND       PRES   REMARKS
ALBUQUERQUE    CLOUDY    53  46  77 E5        30.00F
EL PASO        CLOUDY    70  28  21 W18G24    29.92R
$$


........................KEY........................
SKY/WX - SKY CONDITION/WEATHER
TMP    - TEMPERATURE IN FAHRENHEIT
DP     - DEW POINT IN FAHRENHEIT
RH     - RELATIVE HUMIDITY IN PERCENT
WIND   - DIRECTION AND SPEED IN MILES PER HOUR (MPH)
VRB    - VARIABLE WIND DIRECTION
PRES   - MEAN SEA LEVEL PRESSURE IN INCHES OF MERCURY
         F - FALLING PRESSURE   R - RISING PRESSURE
         S - STEADY PRESSURE
VSB    - VISIBILITY IN MILES
HX     - HEAT INDEX IN FAHRENHEIT
WCI    - WIND CHILL INDEX IN FAHRENHEIT
TC     - TEMPERATURE IN CELSIUS WHICH IS ALSO KNOWN AS
         TEMPERATURE IN CENTIGRADE
AFB    - AIR FORCE BASE
         LUKE AFB IS LUKE AIR FORCE BASE
         DAVIS-MONTHAN IS DAVIS-MONTHAN AIR FORCE BASE
NAS    - NAVAL AIR STATION
         EL CENTRO NAS IS EL CENTRO NAVAL AIR STATION
N/A    - NOT AVAILABLE




USA.gov is the U.S. government's official web portal to all federal, state and local government web resources and services.